Location: Cerbedi�res
(48.2182°N, 1.4849°W)
Time: 08:22:46
(UTC+00:00)

SL-16 R/B - Pass Details

Date: 03 March 2021
Orbit: 842 x 846 km, 71.0° (Epoch: 13 April)

Event Time Altitude Azimuth Distance (km) Brightness Sun altitude
Rises 19:30:14 0° 225° (SW) 3,392 5.9 -16.9°
Reaches altitude 10° 19:32:46 10° 231° (SW) 2,461 5.2 -17.3°
Maximum altitude 19:38:12 47° 305° (NW) 1,112 3.2 -18.2°
Drops below altitude 10° 19:43:41 10° 19° (NNE) 2,477 4.6 -19.1°
Sets 19:46:15 0° 26° (NNE) 3,417 5.2 -19.5°
